Kremmling, CO

8:07 PM MST on November 11, 2019 (GMT -0700)
Kremmling

Weather History for K20V - September, 2019

Change the Weather History Date:

Saturday, September 7, 2019

  Actual Average Record
Temperature  
Mean Temperature 62 °F -  
Max Temperature 77 °F - 86 °F (2017)
Min Temperature 48 °F - 28 °F (2008)
Degree Days  
Heating Degree Days 2    
Month to date heating degree days 10  
Cooling Degree Days 0    
Month to date cooling degree days 4  
Growing Degree Days 12 (Base 50)    
Moisture  
Dew Point 45 °F    
Average Humidity 67    
Maximum Humidity 100    
Minimum Humidity 23    
Precipitation  
Precipitation 0.00 in - 0.18 in (2003)
Snow  
Snow 0.00 in - - ()
Snow Depth 0.00 in    
Sea Level Pressure  
Sea Level Pressure 30.33 in    
Wind  
Wind Speed 2 mph ()    
Max Wind Speed 12 mph    
Max Gust Speed 18 mph    
Visibility 9.7 miles    
Events Rain    
T = Trace of Precipitation, MM = Missing Value Source: Averaged Metar Reports

Daily Weather History Graph

Daily Weather History Graph

Search for Another Location

Airport or City:

Astronomy

Sep. 07, 2019 Rise Set
Actual Time 6:38 AM MDT 7:27 PM MDT
Civil Twilight 6:11 AM MDT 7:55 PM MDT
Nautical Twilight 5:38 AM MDT 8:27 PM MDT
Astronomical Twilight 5:04 AM MDT 9:01 PM MDT
Moon 3:46 PM MDT (9/7) 12:32 AM MDT (9/7)
Length of Visible Light 13h 43m
Length of Day
12h 48m
Waxing Gibbous, 66% of the Moon is Illuminated
Sep 7
Waxing Gibbous
Sep 13
Full
Sep 21
Last Quarter
Sep 28
New
Oct 5
First Quarter

Hourly Weather History & Observations

Time (MDT) Temp. Dew Point Humidity Pressure Visibility Wind Dir Wind Speed Gust Speed Precip Events Conditions
12:06 AM 55.4 °F 51.8 °F 88% 30.41 in 10.0 mi NE 4.6 mph - N/A Rain Light Rain
12:30 AM 53.6 °F 51.8 °F 94% 30.41 in 10.0 mi Calm Calm - N/A   Scattered Clouds
12:47 AM 53.6 °F 51.8 °F 94% 30.41 in 10.0 mi Calm Calm - N/A   Scattered Clouds
1:06 AM 53.6 °F 51.8 °F 94% 30.41 in 10.0 mi Calm Calm - N/A   Clear
1:30 AM 53.6 °F 51.8 °F 94% 30.42 in 10.0 mi Calm Calm - N/A   Mostly Cloudy
1:48 AM 53.6 °F 51.8 °F 94% 30.41 in 10.0 mi Calm Calm - N/A   Mostly Cloudy
2:11 AM 50.0 °F 50.0 °F 100% 30.40 in 10.0 mi Calm Calm - N/A   Clear
2:29 AM 50.0 °F 50.0 °F 100% 30.39 in 10.0 mi Calm Calm - N/A   Clear
2:47 AM 50.0 °F 50.0 °F 100% 30.38 in 10.0 mi Calm Calm - N/A   Clear
3:06 AM 50.0 °F 50.0 °F 100% 30.38 in 10.0 mi Calm Calm - N/A   Clear
3:30 AM 50.0 °F 50.0 °F 100% 30.38 in 10.0 mi Calm Calm - N/A   Scattered Clouds
3:48 AM 50.0 °F 50.0 °F 100% 30.38 in 10.0 mi Calm Calm - N/A   Scattered Clouds
4:06 AM 48.2 °F 48.2 °F 100% 30.39 in 7.0 mi Calm Calm - N/A   Scattered Clouds
4:30 AM 48.2 °F 48.2 °F 100% 30.39 in 0.8 mi Calm Calm - N/A   Mist
4:48 AM 48.2 °F 48.2 °F 100% 30.39 in 5.0 mi Calm Calm - N/A   Clear
5:06 AM 48.2 °F 48.2 °F 100% 30.38 in 10.0 mi Calm Calm - N/A   Scattered Clouds
5:30 AM 48.2 °F 48.2 °F 100% 30.38 in 7.0 mi Calm Calm - N/A   Scattered Clouds
5:47 AM 48.2 °F 48.2 °F 100% 30.39 in 10.0 mi Calm Calm - N/A   Clear
6:11 AM 48.2 °F 48.2 °F 100% 30.39 in 10.0 mi Calm Calm - N/A   Scattered Clouds
6:28 AM 48.2 °F 48.2 °F 100% 30.39 in 10.0 mi Calm Calm - N/A   Scattered Clouds
6:51 AM 48.2 °F 48.2 °F 100% 30.40 in 10.0 mi Calm Calm - N/A   Scattered Clouds
7:11 AM 48.2 °F 48.2 °F 100% 30.39 in 10.0 mi Calm Calm - N/A   Overcast
7:29 AM 48.2 °F 48.2 °F 100% 30.39 in 10.0 mi Calm Calm - N/A   Mostly Cloudy
7:47 AM 48.2 °F 48.2 °F 100% 30.39 in 10.0 mi Calm Calm - N/A   Overcast
8:06 AM 48.2 °F 48.2 °F 100% 30.39 in 10.0 mi Calm Calm - N/A   Scattered Clouds
8:30 AM 53.6 °F 51.8 °F 94% 30.39 in 10.0 mi Calm Calm - N/A   Scattered Clouds
8:48 AM 53.6 °F 50.0 °F 88% 30.40 in 10.0 mi Calm Calm - N/A   Mostly Cloudy
9:06 AM 55.4 °F 50.0 °F 82% 30.40 in 10.0 mi Calm Calm - N/A   Mostly Cloudy
9:30 AM 59.0 °F 50.0 °F 72% 30.39 in 10.0 mi Calm Calm - N/A   Mostly Cloudy
9:47 AM 57.2 °F 50.0 °F 77% 30.39 in 10.0 mi Calm Calm - N/A   Mostly Cloudy
10:06 AM 59.0 °F 51.8 °F 77% 30.39 in 10.0 mi Calm Calm - N/A   Mostly Cloudy
10:30 AM 59.0 °F 50.0 °F 72% 30.39 in 10.0 mi Calm Calm - N/A   Clear
10:48 AM 59.0 °F 50.0 °F 72% 30.38 in 10.0 mi Calm Calm - N/A   Clear
11:06 AM 60.8 °F 51.8 °F 72% 30.37 in 10.0 mi Calm Calm - N/A   Scattered Clouds
11:30 AM 62.6 °F 51.8 °F 68% 30.36 in 10.0 mi Calm Calm - N/A   Mostly Cloudy
11:48 AM 66.2 °F 51.8 °F 60% 30.35 in 10.0 mi Calm Calm - N/A   Mostly Cloudy
12:06 PM 68.0 °F 46.4 °F 46% 30.34 in 10.0 mi Calm Calm - N/A   Overcast
12:30 PM 68.0 °F 46.4 °F 46% 30.33 in 10.0 mi Calm Calm - N/A   Mostly Cloudy
12:48 PM 68.0 °F 44.6 °F 43% 30.32 in 10.0 mi Calm Calm - N/A   Mostly Cloudy
1:06 PM 68.0 °F 44.6 °F 43% 30.32 in 10.0 mi NNE 4.6 mph - N/A   Overcast
1:29 PM 73.4 °F 46.4 °F 38% 30.31 in 10.0 mi North 4.6 mph - N/A   Mostly Cloudy
1:47 PM 69.8 °F 44.6 °F 40% 30.31 in 10.0 mi Calm Calm - N/A   Mostly Cloudy
2:06 PM 73.4 °F 44.6 °F 36% 30.30 in 10.0 mi North 3.5 mph - N/A   Scattered Clouds
2:30 PM 73.4 °F 42.8 °F 33% 30.29 in 10.0 mi Calm Calm - N/A   Scattered Clouds
2:48 PM 75.2 °F 42.8 °F 31% 30.28 in 10.0 mi NW 3.5 mph - N/A   Scattered Clouds
3:06 PM 75.2 °F 41.0 °F 29% 30.27 in 10.0 mi WSW 3.5 mph - N/A   Scattered Clouds
3:30 PM 77.0 °F 41.0 °F 28% 30.26 in 10.0 mi WNW 9.2 mph - N/A   Scattered Clouds
3:48 PM 77.0 °F 41.0 °F 28% 30.26 in 10.0 mi NNW 11.5 mph 18.4 mph N/A   Scattered Clouds
4:06 PM 75.2 °F 41.0 °F 29% 30.26 in 10.0 mi NNW 10.4 mph - N/A   Scattered Clouds
4:30 PM 75.2 °F 37.4 °F 25% 30.25 in 10.0 mi NNW 8.1 mph - N/A   Clear
4:48 PM 75.2 °F 35.6 °F 24% 30.25 in 10.0 mi NNW 9.2 mph 17.3 mph N/A   Scattered Clouds
5:06 PM 75.2 °F 35.6 °F 24% 30.24 in 10.0 mi North 10.4 mph 17.3 mph N/A   Scattered Clouds
5:30 PM 75.2 °F 35.6 °F 24% 30.24 in 10.0 mi North 9.2 mph - N/A   Scattered Clouds
5:48 PM 75.2 °F 37.4 °F 25% 30.24 in 10.0 mi North 10.4 mph 17.3 mph N/A   Clear
6:06 PM 73.4 °F 35.6 °F 25% 30.24 in 10.0 mi NNW 9.2 mph - N/A   Clear
6:30 PM 73.4 °F 35.6 °F 25% 30.24 in 10.0 mi North 10.4 mph - N/A   Clear
6:48 PM 73.4 °F 35.6 °F 25% 30.24 in 10.0 mi NNW 8.1 mph - N/A   Clear
7:06 PM 69.8 °F 35.6 °F 28% 30.24 in 10.0 mi North 4.6 mph - N/A   Clear
7:30 PM 68.0 °F 37.4 °F 33% 30.24 in 10.0 mi Calm Calm - N/A   Clear
7:47 PM 62.6 °F 37.4 °F 39% 30.25 in 10.0 mi WSW 4.6 mph - N/A   Clear
8:06 PM 62.6 °F 37.4 °F 39% 30.25 in 10.0 mi Calm Calm - N/A   Clear
8:30 PM 59.0 °F 39.2 °F 48% 30.26 in 10.0 mi Calm Calm - N/A   Clear
8:48 PM 57.2 °F 41.0 °F 55% 30.27 in 10.0 mi Calm Calm - N/A   Clear
9:06 PM 55.4 °F 39.2 °F 54% 30.27 in 10.0 mi Calm Calm - N/A   Clear
9:30 PM 53.6 °F 41.0 °F 62% 30.28 in 10.0 mi Calm Calm - N/A   Clear
9:48 PM 53.6 °F 41.0 °F 62% 30.28 in 10.0 mi Calm Calm - N/A   Clear
10:06 PM 53.6 °F 42.8 °F 67% 30.29 in 10.0 mi Calm Calm - N/A   Clear
10:30 PM 51.8 °F 42.8 °F 71% 30.29 in 10.0 mi ESE 3.5 mph - N/A   Clear
10:48 PM 53.6 °F 42.8 °F 67% 30.29 in 10.0 mi ESE 4.6 mph - N/A   Scattered Clouds
11:06 PM 51.8 °F 42.8 °F 71% 30.28 in 10.0 mi Calm Calm - N/A   Mostly Cloudy
11:30 PM 50.0 °F 42.8 °F 76% 30.28 in 10.0 mi Calm Calm - N/A   Scattered Clouds
11:48 PM 48.2 °F 42.8 °F 82% 30.27 in 10.0 mi ESE 3.5 mph - N/A   Clear